Location: ??
(34.9170°N, 135.5016°E)
Time: 08:30:32
(UTC+00:00)

CZ-4 DEB - Visible Passes

Search period start: 11 May 2021 00:00
Search period end: 21 May 2021 00:00
Orbit: 541 x 576 km, 98.1° (Epoch: 10 May)

Date Brightness Start Highest point End Pass type
(mag) Time Alt. Az. Time Alt. Az. Time Alt. Az.
11 May ? 18:17:19 40° SSW 18:18:31 61° W 18:22:23 10° NNW visible
12 May ? 18:15:31 38° S 18:16:52 65° W 18:20:45 10° NNW visible
13 May ? 18:13:43 36° S 18:15:11 69° WSW 18:19:05 10° NNW visible
14 May ? 18:11:55 34° S 18:13:30 74° WSW 18:17:25 10° NNW visible
15 May ? 18:10:06 32° S 18:11:50 78° W 18:15:44 10° NNW visible
16 May ? 18:08:17 30° S 18:10:08 83° WSW 18:14:03 10° NNW visible
17 May ? 18:06:27 28° SSE 18:08:26 88° WSW 18:12:21 10° NNW visible
18 May ? 18:04:38 26° SSE 18:06:42 87° E 18:10:38 10° NNW visible
19 May ? 18:02:47 25° SSE 18:05:00 82° ENE 18:08:55 10° N visible
20 May ? 18:00:56 23° SSE 18:03:16 77° ENE 18:07:11 10° N visible
